Regional Weather Roundup
Issued by NWS Memphis, TN

Home | Current Version | Previous Version | Text Only | Print | Product List | Glossary On
Versions: 1 2 3 4 5 6 7 8 9 10 11 12 13 14 15 16 17 18 19 20 21 22 23 24 25 26 27 28 29 30 31 32 33 34 35 36 37 38 39 40 41 42 43 44 45 46 47 48 49 50
000
ASUS44 KMEG 110510
RWRMEG
MEMPHIS CWA HOURLY WEATHER ROUNDUP
NATIONAL WEATHER SERVICE MEMPHIS TN
1100 PM CST WED FEB 10 2016

...WEST TENNESSEE...

CITY           SKY/WX    TMP DP  RH WIND       PRES   REMARKS
MEMPHIS INTL   CLEAR     36  18  48 E9        30.10F WCI  29
JACKSON        CLEAR     27  10  49 SE8       30.14F WCI  19
LEXINGTON      CLEAR     25  12  58 CALM      30.15F
DYERSBURG      CLEAR     27  12  54 E7        30.15F WCI  19
UNION CITY     MOCLDY    25  16  68 E3        30.14F
PARIS          CLOUDY    23  16  74 E7        30.15F WCI  15


...EASTERN ARKANSAS...

CITY           SKY/WX    TMP DP  RH WIND       PRES   REMARKS
JONESBORO      CLEAR     29  17  61 E7        30.09F WCI  22
WEST MEMPHIS   CLEAR     34  21  59 SE8       30.09F WCI  27
BATESVILLE     CLEAR     34  19  55 E8        30.07F WCI  27
NEWPORT        CLEAR     31  23  72 E8        30.09F WCI  24
WALNUT RIDGE   CLEAR     28  14  54 E7        30.10F WCI  21
BLYTHEVILLE    CLEAR     31  14  49 SE8       30.13F WCI  23
SEARCY         CLEAR     33  25  72 NE6       30.06F WCI  28
STUTTGART      CLEAR     37  28  70 SE6       30.05S WCI  33
PINE BLUFF     CLEAR     36  27  69 SE3       30.04F
MONTICELLO     CLEAR     50  30  46 SW9       30.06F


...NORTH MISSISSIPPI...

CITY           SKY/WX    TMP DP  RH WIND       PRES   REMARKS
TUPELO         CLEAR     33  13  43 NE5       30.16F WCI  29
OXFORD         CLEAR     32  16  51 E3        30.14S
TUNICA         CLEAR     34  23  64 E9        30.10F WCI  26
CORINTH        CLEAR     30  10  43 SE5       30.15F WCI  25
GREENWOOD      CLEAR     33  25  72 CALM      30.11S
COLUMBUS       CLEAR     32  22  68 CALM      30.16S
STARKVILLE     FAIR      30  25  80 CALM      30.16R
GOLDEN TRIANGL CLEAR     34  19  55 E6        30.15S WCI  29


...SOUTHEAST MISSOURI...

CITY           SKY/WX    TMP DP  RH WIND       PRES   REMARKS
WEST PLAINS    CLEAR     27  10  49 E6        30.05S WCI  20
POPLAR BLUFF   CLEAR     24  18  77 NE5       30.13S WCI  18
CAPE GIRARDEAU CLOUDY    24  19  81 E5        30.16S WCI  18


...NORTHWEST ALABAMA...

CITY           SKY/WX    TMP DP  RH WIND       PRES   REMARKS
MUSCLE SHOALS  CLEAR     27  14  58 E6        30.19F WCI  20


...MIDDLE TENNESSEE...

CITY           SKY/WX    TMP DP  RH WIND       PRES   REMARKS
NASHVILLE      CLOUDY    26  20  77 CALM      30.20F
CLARKSVILLE    CLOUDY    25  20  81 CALM      30.18F
COLUMBIA       CLOUDY    27  25  93 CALM      30.16F


...WESTERN KENTUCKY...

CITY           SKY/WX    TMP DP  RH WIND       PRES   REMARKS
PADUCAH        CLOUDY    25  19  78 SE5       30.15F WCI  19
FORT CAMPBELL  CLOUDY    24  20  83 SE3       30.17F


...CENTRAL ARKANSAS...

CITY           SKY/WX    TMP DP  RH WIND       PRES   REMARKS
LITTLE ROCK    CLEAR     40  26  57 S3        30.03F


SKY/WX REPORTED AS FAIR MEANS FEW OR NO CLOUDS BELOW
12 THOUSAND FEET.




USA.gov is the U.S. government's official web portal to all federal, state and local government web resources and services.